Zurück zum Katalog

COSMOS 2351

AktivMilitärHEO
NORAD 25327·PAYLOAD·🇷🇺 Russia

Gestartet May 7, 1998 von Plesetsk Cosmodrome

Loading…

Nächste Überflüge (nächste 24 Stunden)

TLE

AktuellSource: Space-Track

Epoche: Sep 13, 2026, 00:00 UTC

1 25327U 98027A   26256.00017484  .00000865  00000-0  00000-0 0  9999
2 25327  63.8545 108.8846 6995340 180.0719 179.8041  2.00658571207721

Verfolge COSMOS 2351 in Echtzeit mit AllMySat

Download on the App Store